• In Belgium
  • List of Countries
  • For 7 days
  • Water Temperature
  • Satellite Maps
  • Weather Map
  • Weather Widgets
  • user-avatar
    Login

    Hourly Weather Vershinino

    Today, 20 September, Thursday

    Time Temperature Precipitation Wind Pressure Humidity
    00:00 +12°C° 0.3 mm 2 mps 745 mmHg 98%
    01:00 +13°C° 0.3 mm 2 mps 745 mmHg 98%
    02:00 +12°C° 0.3 mm 3 mps 745 mmHg 98%
    03:00 +14°C° 0 mm 2 mps 744 mmHg 98%
    04:00 +14°C° 0.1 mm 2 mps 744 mmHg 98%
    05:00 +14°C° 0.1 mm 2 mps 744 mmHg 98%
    06:00 +15°C° 0.1 mm 2 mps 744 mmHg 98%
    07:00 +14°C° 0.1 mm 3 mps 745 mmHg 97%
    08:00 +14°C° 0.1 mm 3 mps 745 mmHg 96%
    09:00 +14°C° 0.1 mm 3 mps 745 mmHg 95%
    10:00 +14°C° 0.1 mm 3 mps 746 mmHg 94%
    11:00 +16°C° 0.1 mm 3 mps 746 mmHg 92%
    12:00 +16°C° 0.1 mm 3 mps 746 mmHg 91%
    13:00 +16°C° 0 mm 3 mps 747 mmHg 89%
    14:00 +16°C° 0 mm 3 mps 747 mmHg 87%
    15:00 +17°C° 0 mm 3 mps 747 mmHg 86%
    16:00 +16°C° 0 mm 3 mps 747 mmHg 87%
    17:00 +16°C° 0 mm 2 mps 747 mmHg 88%
    18:00 +16°C° 0 mm 2 mps 748 mmHg 89%
    19:00 +15°C° 0 mm 2 mps 748 mmHg 90%
    20:00 +14°C° 0 mm 3 mps 748 mmHg 92%
    21:00 +14°C° 0 mm 3 mps 748 mmHg 93%
    22:00 +14°C° 0 mm 3 mps 748 mmHg 93%
    23:00 +14°C° 0 mm 3 mps 748 mmHg 93%

    Tomorrow, 21 September, Friday

    Time Temperature Precipitation Wind Pressure Humidity
    00:00 +16°C° 0 mm 3 mps 747 mmHg 93%
    01:00 +16°C° 0 mm 3 mps 748 mmHg 92%
    02:00 +15°C° 0 mm 4 mps 748 mmHg 92%
    03:00 +15°C° 0 mm 4 mps 748 mmHg 92%
    04:00 +14°C° 0 mm 4 mps 748 mmHg 91%
    05:00 +13°C° 0 mm 3 mps 749 mmHg 91%
    06:00 +13°C° 0 mm 3 mps 749 mmHg 91%
    07:00 +13°C° 0 mm 3 mps 749 mmHg 87%
    08:00 +14°C° 0 mm 4 mps 750 mmHg 83%
    09:00 +14°C° 0 mm 4 mps 750 mmHg 78%
    10:00 +16°C° 0.3 mm 3 mps 750 mmHg 81%
    11:00 +16°C° 0.3 mm 3 mps 750 mmHg 83%
    12:00 +16°C° 0.3 mm 2 mps 750 mmHg 85%
    13:00 +16°C° 0.1 mm 3 mps 750 mmHg 83%
    14:00 +17°C° 0.1 mm 3 mps 750 mmHg 82%
    15:00 +18°C° 0.1 mm 3 mps 750 mmHg 81%
    16:00 +17°C° 0.1 mm 3 mps 750 mmHg 84%
    17:00 +17°C° 0.1 mm 3 mps 750 mmHg 86%
    18:00 +17°C° 0.1 mm 3 mps 750 mmHg 89%
    19:00 +16°C° 0 mm 3 mps 750 mmHg 91%
    20:00 +16°C° 0 mm 3 mps 750 mmHg 93%
    21:00 +14°C° 0 mm 3 mps 750 mmHg 95%
    22:00 +15°C° 0 mm 2 mps 750 mmHg 95%
    23:00 +15°C° 0 mm 2 mps 750 mmHg 96%

    Day after tomorrow, 22 September, Saturday

    Time Temperature Precipitation Wind Pressure Humidity
    00:00 +15°C° 0 mm 2 mps 750 mmHg 96%
    01:00 +14°C° 0 mm 3 mps 750 mmHg 96%
    02:00 +14°C° 0 mm 3 mps 749 mmHg 96%
    03:00 +14°C° 0 mm 3 mps 749 mmHg 96%
    04:00 +14°C° 0 mm 3 mps 749 mmHg 96%
    05:00 +14°C° 0 mm 3 mps 748 mmHg 96%
    06:00 +15°C° 0 mm 4 mps 748 mmHg 97%
    07:00 +15°C° 0 mm 4 mps 747 mmHg 93%
    08:00 +17°C° 0 mm 4 mps 747 mmHg 90%
    09:00 +17°C° 0 mm 5 mps 746 mmHg 87%
    10:00 +20°C° 0 mm 5 mps 746 mmHg 79%
    11:00 +21°C° 0 mm 6 mps 745 mmHg 71%
    12:00 +22°C° 0 mm 6 mps 745 mmHg 63%
    13:00 +23°C° 0.1 mm 6 mps 745 mmHg 61%
    14:00 +23°C° 0.1 mm 6 mps 744 mmHg 60%
    15:00 +23°C° 0.1 mm 6 mps 744 mmHg 58%
    16:00 +21°C° 0.4 mm 6 mps 744 mmHg 66%
    17:00 +19°C° 0.4 mm 5 mps 744 mmHg 73%
    18:00 +17°C° 0.4 mm 4 mps 744 mmHg 81%
    19:00 +15°C° 0 mm 4 mps 745 mmHg 82%
    20:00 +14°C° 0 mm 3 mps 745 mmHg 83%
    21:00 +13°C° 0 mm 3 mps 745 mmHg 85%
    22:00 +12°C° 0 mm 3 mps 745 mmHg 86%
    23:00 +12°C° 0 mm 3 mps 745 mmHg 87%

    23 September, Sunday

    Time Temperature Precipitation Wind Pressure Humidity
    00:00 +12°C° 0 mm 3 mps 746 mmHg 88%
    01:00 +12°C° 0 mm 3 mps 746 mmHg 88%
    02:00 +11°C° 0 mm 3 mps 746 mmHg 88%
    03:00 +11°C° 0 mm 3 mps 746 mmHg 89%
    04:00 +11°C° 0 mm 3 mps 745 mmHg 89%
    05:00 +11°C° 0 mm 3 mps 745 mmHg 90%
    06:00 +10°C° 0 mm 3 mps 745 mmHg 91%
    07:00 +11°C° 0.1 mm 3 mps 745 mmHg 89%
    08:00 +11°C° 0.1 mm 3 mps 745 mmHg 87%
    09:00 +11°C° 0.1 mm 3 mps 744 mmHg 85%
    10:00 +12°C° 0.1 mm 3 mps 744 mmHg 82%
    11:00 +12°C° 0.1 mm 3 mps 744 mmHg 79%
    12:00 +12°C° 0.1 mm 3 mps 744 mmHg 75%
    13:00 +12°C° 0 mm 3 mps 744 mmHg 74%
    14:00 +12°C° 0 mm 3 mps 743 mmHg 72%
    15:00 +12°C° 0 mm 3 mps 743 mmHg 70%
    16:00 +12°C° 0 mm 3 mps 743 mmHg 73%
    17:00 +12°C° 0 mm 2 mps 742 mmHg 76%
    18:00 +12°C° 0 mm 2 mps 742 mmHg 78%
    19:00 +10°C° 0 mm 2 mps 742 mmHg 80%
    20:00 +10°C° 0 mm 2 mps 742 mmHg 82%
    21:00 +9°C° 0 mm 3 mps 742 mmHg 84%
    22:00 +9°C° 0 mm 3 mps 741 mmHg 86%
    23:00 +8°C° 0 mm 3 mps 741 mmHg 87%

    24 September, Monday

    Time Temperature Precipitation Wind Pressure Humidity
    00:00 +8°C° 0 mm 3 mps 741 mmHg 89%
    01:00 +8°C° 0 mm 3 mps 741 mmHg 90%
    02:00 +7°C° 0 mm 3 mps 741 mmHg 92%
    03:00 +7°C° 0 mm 3 mps 741 mmHg 93%
    04:00 +7°C° 0 mm 3 mps 741 mmHg 92%
    05:00 +8°C° 0 mm 3 mps 741 mmHg 90%
    06:00 +7°C° 0 mm 4 mps 740 mmHg 88%
    07:00 +7°C° 0.1 mm 4 mps 741 mmHg 86%
    08:00 +7°C° 0.1 mm 4 mps 741 mmHg 84%
    09:00 +8°C° 0.1 mm 4 mps 741 mmHg 82%
    10:00 +8°C° 0.1 mm 4 mps 741 mmHg 82%
    11:00 +8°C° 0.1 mm 4 mps 742 mmHg 81%
    12:00 +8°C° 0.1 mm 4 mps 742 mmHg 81%
    13:00 +8°C° 0.1 mm 4 mps 742 mmHg 81%
    14:00 +8°C° 0.1 mm 4 mps 742 mmHg 80%
    15:00 +9°C° 0.1 mm 3 mps 742 mmHg 79%
    16:00 +9°C° 0 mm 3 mps 742 mmHg 81%
    17:00 +9°C° 0 mm 2 mps 743 mmHg 82%
    18:00 +9°C° 0 mm 2 mps 743 mmHg 84%
    19:00 +8°C° 0 mm 2 mps 743 mmHg 87%
    20:00 +8°C° 0 mm 1 mps 742 mmHg 90%
    21:00 +8°C° 0 mm 1 mps 742 mmHg 93%
    22:00 +8°C° 0 mm 1 mps 742 mmHg 93%
    23:00 +7°C° 0 mm 2 mps 742 mmHg 93%

    25 September, Tuesday

    Time Temperature Precipitation Wind Pressure Humidity
    00:00 +7°C° 0 mm 2 mps 741 mmHg 93%
    01:00 +7°C° 0.3 mm 2 mps 741 mmHg 94%
    02:00 +7°C° 0.3 mm 2 mps 740 mmHg 94%
    03:00 +7°C° 0.3 mm 3 mps 739 mmHg 94%
    04:00 +7°C° 0.7 mm 3 mps 739 mmHg 94%
    05:00 +6°C° 0.7 mm 4 mps 738 mmHg 94%
    06:00 +6°C° 0.7 mm 4 mps 737 mmHg 94%
    07:00 +6°C° 1.1 mm 5 mps 737 mmHg 93%
    08:00 +6°C° 1.1 mm 5 mps 736 mmHg 92%
    09:00 +6°C° 1.1 mm 5 mps 735 mmHg 92%
    10:00 +6°C° 1.4 mm 5 mps 735 mmHg 91%
    11:00 +6°C° 1.4 mm 5 mps 735 mmHg 91%
    12:00 +6°C° 1.4 mm 5 mps 734 mmHg 91%
    13:00 +5°C° 1.4 mm 6 mps 735 mmHg 90%
    14:00 +5°C° 1.4 mm 6 mps 735 mmHg 90%
    15:00 +5°C° 1.4 mm 6 mps 735 mmHg 90%
    16:00 +5°C° 1 mm 6 mps 735 mmHg 89%
    17:00 +5°C° 1 mm 6 mps 736 mmHg 89%
    18:00 +5°C° 1 mm 6 mps 736 mmHg 88%
    19:00 +5°C° 0.8 mm 6 mps 737 mmHg 88%
    20:00 +5°C° 0.8 mm 7 mps 738 mmHg 87%
    21:00 +4°C° 0.8 mm 7 mps 738 mmHg 86%
    22:00 +4°C° 0.3 mm 7 mps 739 mmHg 85%
    23:00 +4°C° 0.3 mm 7 mps 740 mmHg 84%
    Show more